NOAA NWS Hourly Roundups by Site

Regional Weather Roundup for Phoenix, AZ

To Select Another Site Choose from List

Select Site:  

000
ASUS45 KPSR 100210
RWRAZ

ARIZONA HOURLY REGIONAL WEATHER ROUNDUP
NATIONAL WEATHER SERVICE PHOENIX AZ
700 PM MST FRI DEC 09 2022

NOTE: FAIR INDICATES FEW OR NO CLOUDS BELOW 12,000 FEET WITH NO
SIGNIFICANT WEATHER AND/OR OBSTRUCTIONS TO VISIBILITY.

AZZ001>003-036-100300-
NORTHWEST ARIZONA

CITY           SKY/WX    TMP DP  RH WIND       PRES   REMARKS
KINGMAN        CLEAR     35  16  45 S3        30.08S
$$

AZZ004>008-015-016-018-100300-
NORTH CENTRAL ARIZONA

CITY           SKY/WX    TMP DP  RH WIND       PRES   REMARKS
GRAND CANYON   CLEAR     22  16  78 E3        30.12S
WILLIAMS       CLEAR     27  14  59 S7        30.12R WCI  19
PRESCOTT       CLEAR     36   8  31 CALM      30.09R
FLAGSTAFF      CLEAR     28  16  60 CALM      30.13R
PAYSON         CLEAR     45  23  42 CALM      30.10F
PAGE           CLEAR     39  32  76 CALM      30.11R
$$

AZZ009>014-017-100300-
NORTHEAST ARIZONA

CITY           SKY/WX    TMP DP  RH WIND       PRES   REMARKS
WINSLOW        CLEAR     35  15  44 W8        30.11R WCI  29
WINDOW ROCK    CLEAR     31  17  56 S3        30.12R
SHOW LOW       CLEAR     36  25  64 S3        30.13R
$$

AZZ540-542>544-546-548-100300-
GREATER PHOENIX AREA

CITY           SKY/WX    TMP DP  RH WIND       PRES   REMARKS
PHOENIX        CLEAR     56  37  49 SW5       30.03R
BUCKEYE        CLEAR     52  37  58 CALM      30.05S
GLENDALE       CLEAR     55  34  44 CALM      30.04R
LUKE AFB       CLEAR     56  29  36 S5        30.03R
DEER VALLEY    CLEAR     55  34  45 CALM      30.04S
SCOTTSDALE     CLEAR     56  33  42 NW3       30.05R
MESA-FALCON    CLEAR     57  34  41 W6        30.04R
MESA-GATEWAY   CLEAR     55  37  50 W3        30.05S
CHANDLER       CLEAR     57  36  44 W5        30.05R
$$

AZZ539-553-100300-
SOUTHWEST MARICOPA COUNTY AND PINAL COUNTY

CITY           SKY/WX    TMP DP  RH WIND       PRES   REMARKS
CASA GRANDE    CLEAR     53  39  59 NW6       30.05S
GILA BEND      FAIR      53  37  54 CALM      30.05S
$$

AZZ503-504-507>509-100300-
SOUTHEAST ARIZONA

CITY           SKY/WX    TMP DP  RH WIND       PRES   REMARKS
TUCSON         CLEAR     55  37  50 N5        30.05S
DAVIS-MONTHAN  CLEAR     50  37  61 NW6       30.03S
RYAN FIELD     CLEAR     50  37  62 SW3       30.04R
SIERRA VISTA   CLEAR     49  34  57 SW6       30.07F
DOUGLAS        CLEAR     47  35  63 NW12      30.05R
SAFFORD        CLEAR     49  41  74 NW7       30.02R
$$

AZZ532-100300-
SOUTHWEST ARIZONA

CITY           SKY/WX    TMP DP  RH WIND       PRES   REMARKS
YUMA           CLEAR     57  31  37 CALM      30.05R
$$

CAZ041-043-047-048-061-525>527-560>570-100300-
SOUTHERN CALIFORNIA

CITY           SKY/WX    TMP DP  RH WIND       PRES   REMARKS
DOWNTOWN L.A.  CLEAR     55  47  74 CALM      30.11R
L.A. AIRPORT   PTCLDY    56  46  69 W8        30.10S
SAN DIEGO      PTCLDY    56  46  69 N3        30.11S
BURBANK        CLEAR     54  41  61 SE3       30.10R
ONTARIO        CLEAR     54  40  59 W6        30.09R
RIVERSIDE      CLEAR     53  38  56 CALM      30.09R
PALM SPRINGS   CLEAR     60  30  32 W5        30.07R
EL CENTRO NAS  CLEAR     60  37  42 CALM      30.07R
IMPERIAL       CLEAR     57  34  41 CALM      30.05R
BLYTHE         CLEAR     55  25  31 S3        30.06S
NEEDLES        CLEAR     51  27  39 W8        30.06F
$$

NVZ020-UTZ003-100300-
SOUTHERN NEVADA-UTAH

CITY           SKY/WX    TMP DP  RH WIND       PRES   REMARKS
LAS VEGAS      PTCLDY    51  25  36 CALM      30.08R
SALT LAKE CITY MOCLDY    36  24  62 S3        30.13S
$$

NMZ009-TXZ055-100300-
NEW MEXICO-WEST TEXAS

CITY           SKY/WX    TMP DP  RH WIND       PRES   REMARKS
ALBUQUERQUE    PTCLDY    47  24  40 NW3       30.09R
EL PASO        CLOUDY    56  37  49 N3        30.04S
$$


........................KEY........................
SKY/WX - SKY CONDITION/WEATHER
TMP    - TEMPERATURE IN FAHRENHEIT
DP     - DEW POINT IN FAHRENHEIT
RH     - RELATIVE HUMIDITY IN PERCENT
WIND   - DIRECTION AND SPEED IN MILES PER HOUR (MPH)
VRB    - VARIABLE WIND DIRECTION
PRES   - MEAN SEA LEVEL PRESSURE IN INCHES OF MERCURY
         F - FALLING PRESSURE   R - RISING PRESSURE
         S - STEADY PRESSURE
VSB    - VISIBILITY IN MILES
HX     - HEAT INDEX IN FAHRENHEIT
WCI    - WIND CHILL INDEX IN FAHRENHEIT
TC     - TEMPERATURE IN CELSIUS WHICH IS ALSO KNOWN AS
         TEMPERATURE IN CENTIGRADE
AFB    - AIR FORCE BASE
         LUKE AFB IS LUKE AIR FORCE BASE
         DAVIS-MONTHAN IS DAVIS-MONTHAN AIR FORCE BASE
NAS    - NAVAL AIR STATION
         EL CENTRO NAS IS EL CENTRO NAVAL AIR STATION
N/A    - NOT AVAILABLE



 

View Past Reports for Phoenix, AZ.

Products Courtesy of NOAA-NWS
NWS Information Parsing Script by Ken True at Saratoga Weather - Script by SE Lincoln Weather.